This is the latest recevied weather packets stored in our database for station/object KE6AFE. If no packets are shown the sender has not sent any weather packets the latest 10 day(s).
| Time | Temp. | Humidity | Pressure | Rain* | Wind** | Luminosity | Snow |
|---|---|---|---|---|---|---|---|
| 1777489954 | 21.11° C | 51% | 1018.8 hPa | 0 mm | - | - | - |
| 1777489344 | 20.56° C | 51% | 1019 hPa | 0 mm | - | - | - |
| 1777488734 | 20.56° C | 52% | 1019 hPa | 0 mm | - | - | - |
| 1777488124 | 20° C | 53% | 1019 hPa | 0 mm | - | - | - |
| 1777487514 | 19.44° C | 54% | 1019.1 hPa | 0 mm | - | - | - |
| 1777486904 | 18.89° C | 56% | 1019 hPa | 0 mm | - | - | - |
| 1777486294 | 18.89° C | 58% | 1019 hPa | 0 mm | - | - | - |
| 1777485684 | 18.33° C | 58% | 1019 hPa | 0 mm | - | - | - |
| 1777485074 | 18.33° C | 59% | 1019.1 hPa | 0 mm | - | - | - |
| 1777484464 | 17.78° C | 63% | 1019.1 hPa | 0 mm | - | - | - |
| 1777483854 | 17.78° C | 65% | 1019.1 hPa | 0 mm | - | - | - |
| 1777483244 | 17.22° C | 66% | 1019 hPa | 0 mm | - | - | - |
| 1777482634 | 16.67° C | 67% | 1018.9 hPa | 0 mm | - | - | - |
| 1777482024 | 16.67° C | 67% | 1018.9 hPa | 0 mm | - | - | - |
| 1777481414 | 16.11° C | 67% | 1019 hPa | 0 mm | - | - | - |
| 1777480804 | 15.56° C | 67% | 1019.1 hPa | 0 mm | - | - | - |
| 1777480194 | 15.56° C | 68% | 1019.1 hPa | 0 mm | - | - | - |
| 1777479584 | 15° C | 69% | 1019.1 hPa | 0 mm | - | - | - |
| 1777478974 | 14.44° C | 70% | 1019.2 hPa | 0 mm | - | - | - |
| 1777478364 | 13.89° C | 72% | 1019.3 hPa | 0 mm | - | - | - |
| 1777477754 | 13.33° C | 73% | 1019.4 hPa | 0 mm | - | - | - |
| 1777477144 | 12.78° C | 74% | 1019.2 hPa | 0 mm | - | - | - |
| 1777476534 | 12.22° C | 75% | 1019.2 hPa | 0 mm | - | - | - |
| 1777475924 | 12.22° C | 75% | 1019.4 hPa | 0 mm | - | - | - |
| 1777475314 | 11.67° C | 75% | 1019.4 hPa | 0 mm | - | - | - |
* Rain latest hour (hover to see other rain measurements)
** Current wind speed in m/s (hover to see current wind gust speed)